Regional Weather Roundup
Issued by NWS

Home | Current Version | Previous Version | Graphics & Text | Print | Product List | Glossary On
Versions: 1 2 3 4 5 6 7 8 9 10 11 12 13 14 15 16 17 18 19 20 21 22 23 24 25 26 27 28 29 30 31 32 33 34 35 36 37 38 39 40 41 42 43 44 45 46 47 48 49 50
000
ASUS45 KCYS 310910
RWRWY

WYOMING REGIONAL WEATHER ROUNDUP
NATIONAL WEATHER SERVICE CHEYENNE WY
300 AM MDT MON AUG 31 2015

NOTE:  "FAIR" INDICATES FEW OR NO CLOUDS BELOW 12,000 FEET
WITH NO SIGNIFICANT WEATHER AND/OR OBSTRUCTIONS TO VISIBILITY.

WYZ001-311000-
YELLOWSTONE NATIONAL PARK

CITY           SKY/WX    TMP DP  RH WIND       PRES   REMARKS
LK YELLOWSTONE   N/A     44  22  41 CALM      30.19F
W YELLOWSTONE  NOT AVBL

$$
WYZ002>013-054>058-071-098>099-311000-
NORTHERN WYOMING

CITY           SKY/WX    TMP DP  RH WIND       PRES   REMARKS
JACKSON        FAIR      48  28  46 CALM      30.14F
CODY           FAIR      57  43  58 N13G22    30.01R
GREYBULL       FAIR      66  33  29 VRB6      29.90R
WORLAND        FAIR      58  44  60 NE7       29.92R
SHERIDAN       FAIR      61  44  53 NW22G32   29.97R
BUFFALO        FAIR      65  42  43 NW30G39   29.93S
GILLETTE       FAIR      68  45  43 W9        29.87R
HULETT         FAIR      70  46  43 SW9       29.87R
NEWCASTLE      FAIR      70  43  37 CALM      29.89R

$$
WYZ014>020-022>026-101>103-311000-
CENTRAL WYOMING

CITY           SKY/WX    TMP DP  RH WIND       PRES   REMARKS
BIG PINEY      FAIR      46  32  58 NE7       30.20S
PINEDALE       FAIR      45  34  65 W5        30.21R
DUBOIS         FAIR      50  27  40 N7        30.14R
LANDER         FAIR      67  42  40 NW9       30.02R
RIVERTON       FAIR      63  38  39 CALM      30.02S
CASPER         FAIR      69  44  40 SW16      30.00S
DOUGLAS        FAIR      76  44  32 W15G26    29.96R

$$
WYZ021-027>030-104>119-311000-
SOUTHERN WYOMING

CITY           SKY/WX    TMP DP  RH WIND       PRES   REMARKS
EVANSTON       FAIR      56  40  55 N7        30.20F
KEMMERER       FAIR      52  34  50 NW8       30.22R
FORT BRIDGER   MOSUNNY   54  48  82 W12       30.24R THUNDER
ROCK SPRINGS   FAIR      56  48  74 S10       30.17R
DIXON          CLOUDY    61  48  62 CALM      30.24S
RAWLINS        FAIR      61  47  59 SW15      30.16F
SARATOGA       CLOUDY    61  46  59 SW6       30.24S
LARAMIE        LGT RAIN  61  46  57 W9        30.21R
CHEYENNE       FAIR      71  45  39 W20G29    30.06S
TORRINGTON     CLOUDY    70  54  56 W6        29.92S
PINE BLUFFS    FAIR      64  46  52 W3        30.01S

$$



USA.gov is the U.S. government's official web portal to all federal, state and local government web resources and services.